Station SAXG1 - Marsh Island, Sapelo Island Reserve, GA Image indicating link to RSS feed of recent meteorological observations for station SAXG1


Conditions at SAXG1 as of
(2:00 am EDT)
0600 GMT on 04/14/2024:
     

Click on the graph icon in the table below to see a time series plot of the last five days of that observation.

5-day plot - Wind Direction Wind Direction (WDIR): SW ( 220 deg true )
5-day plot - Wind Speed Wind Speed (WSPD): 2.9 kts
5-day plot - Atmospheric Pressure Atmospheric Pressure (PRES):30.15 in
5-day plot - Pressure Tendency Pressure Tendency (PTDY):+0.00 in ( Steady )
5-day plot - Air Temperature Air Temperature (ATMP): 59.7 °F
5-day plot - Dew Point Dew Point (DEWP): 49.6 °F
5-day plot -  Wind Speed, Wind Gust and Atmospheric Pressure Combined plot of Wind Speed, Gust, and Air Pressure
Previous observations
TIME
(EDT)
5-day plot - Wind Direction
WDIR
 
5-day plot - Wind Speed
WSPD
kts
5-day plot - Wind Gust
GST
kts
5-day plot - Wave Height
WVHT
ft
5-day plot - Dominant Wave Period
DPD
sec
5-day plot - Average Wave Period
APD
sec
5-day plot - Mean Wave Direction
MWD
 
5-day plot - Atmospheric Pressure
PRES
in
5-day plot - Pressure Tendency
PTDY
in
5-day plot - Air Temperature
ATMP
°F
5-day plot - Water Temperature
WTMP
°F
5-day plot - Dew Point
DEWP
°F
5-day plot - Salinity
SAL
psu
5-day plot - Visibility
VIS
nmi
5-day plot - Tide (above MLLW)
TIDE
ft
2024-04-14 01:45 am SW 2.9-----30.15- 58.8- 50.0---
2024-04-14 01:30 am SW 1.9-----30.15- 61.2- 51.1---
2024-04-14 01:15 amWSW 2.9-----30.15- 63.7- 52.0---
2024-04-14 01:00 amWSW 2.9-----30.15+0.00 61.7- 50.0---
2024-04-14 12:45 am SW 1.9-----30.15- 60.8- 50.4---
2024-04-14 12:30 am- 0.0-----30.15- 59.0- 51.6---
2024-04-14 12:15 amSSW 1.0-----30.18- 61.9- 51.8---
2024-04-14 12:00 am SW 1.9-----30.18+0.03 62.4- 51.4---
2024-04-13 11:45 pm S 1.9-----30.18- 62.4- 52.0---
2024-04-13 11:30 pm SW 1.0-----30.18- 62.8- 51.8---
2024-04-13 11:15 pm SW 1.9-----30.15- 63.1- 51.8---
2024-04-13 11:00 pm S 1.9-----30.15+0.03 59.7- 53.2---
2024-04-13 10:45 pm S 1.0-----30.15- 60.3- 52.7---
2024-04-13 10:30 pm SW 1.9-----30.15- 62.8- 53.8---
2024-04-13 10:15 pmSSW 1.9-----30.15- 63.0- 53.6---
2024-04-13 10:00 pmSSE 1.9-----30.15+0.03 60.1- 52.7---
2024-04-13 09:45 pm S 1.9-----30.15- 62.6- 52.9---
2024-04-13 09:30 pm S 2.9-----30.15- 60.4- 52.5---
2024-04-13 09:15 pm S 2.9-----30.15- 63.0- 52.3---
2024-04-13 09:00 pm S 1.9-----30.15+0.03 63.0- 52.0---
2024-04-13 08:45 pmSSW 2.9-----30.12- 64.6- 53.2---
2024-04-13 08:30 pmWSW 2.9-----30.12- 67.1- 54.7---
2024-04-13 08:15 pmWSW 5.1-----30.12- 69.3- 55.6---
2024-04-13 08:00 pm W 5.1-----30.12+0.00 71.1- 51.8---
2024-04-13 07:45 pm W 7.0-----30.12- 72.7- 48.7---
2024-04-13 07:30 pm W 7.0-----30.12- 73.9- 47.1---
2024-04-13 07:15 pm W 8.0-----30.12- 75.2- 46.2---
2024-04-13 07:00 pm W 9.9-----30.12-0.03 75.7- 45.1---
2024-04-13 06:45 pm W 9.9-----30.12- 76.3- 44.8---
2024-04-13 06:30 pm W 9.9-----30.12- 76.6- 43.5---
2024-04-13 06:15 pm W 8.9-----30.12- 77.0- 43.7---
2024-04-13 06:00 pm W 9.9-----30.12-0.06 76.8- 43.5---
2024-04-13 05:45 pm W 11.1-----30.12- 76.8- 43.5---
2024-04-13 05:30 pm W 11.1-----30.12- 77.0- 43.0---
2024-04-13 05:15 pmWNW 8.9-----30.12- 77.7- 43.5---
2024-04-13 05:00 pm W 11.1-----30.12-0.09 77.0- 43.0---
2024-04-13 04:45 pmWNW 11.1-----30.12- 77.0- 43.0---
2024-04-13 04:30 pmWNW 11.1-----30.12- 77.0- 41.9---
2024-04-13 04:15 pmWNW 12.0-----30.15- 77.4- 42.3---
2024-04-13 04:00 pmWNW 9.9-----30.15-0.09 76.8- 41.9---
2024-04-13 03:45 pmWNW 11.1-----30.15- 76.1- 42.1---
2024-04-13 03:30 pmWNW 11.1-----30.15- 75.9- 41.9---
2024-04-13 03:15 pmWNW 11.1-----30.15- 75.6- 41.5---
2024-04-13 03:00 pm W 12.0-----30.18-0.06 75.2- 41.4---
2024-04-13 02:45 pm W 12.0-----30.18- 74.8- 41.0---
2024-04-13 02:30 pm W 12.0-----30.18- 74.8- 41.0---
2024-04-13 02:15 pm W 11.1-----30.18- 74.3- 41.4---
2024-04-13 02:00 pm NW 8.9-----30.21-0.03 74.3- 42.3---
2024-04-13 01:45 pmWNW 11.1-----30.21- 73.8- 41.7---
2024-04-13 01:30 pmWNW 12.0-----30.21- 73.4- 41.4---
2024-04-13 01:15 pm NW 12.0-----30.21- 73.4- 43.0---
2024-04-13 01:00 pm NW 12.0-----30.24- 73.0- 42.8---
2024-04-13 12:45 pm NW 14.0-----30.24- 72.7- 43.2---
2024-04-13 12:30 pmWNW 13.0-----30.24- 72.3- 40.5---
2024-04-13 12:15 pm NW 12.0-----30.24- 72.0- 43.3---
2024-04-13 12:00 pm NW 11.1-----30.24+0.00 71.8- 43.9---
2024-04-13 11:45 am NW 12.0-----30.27- 70.9- 42.3---
2024-04-13 11:30 am NW 11.1-----30.24- 70.7- 43.5---
2024-04-13 11:15 amNNW 9.9-----30.24- 69.8- 44.1---
2024-04-13 11:00 am NW 11.1-----30.24+0.00 69.6- 44.1---
2024-04-13 10:45 am NW 8.9-----30.24- 69.1- 44.1---
2024-04-13 10:30 amNNW 8.9-----30.24- 68.5- 45.0---
2024-04-13 10:15 am NW 8.9-----30.24- 67.6- 45.3---
2024-04-13 09:00 am NW 8.0-----30.24+0.03 60.4- 45.9---
2024-04-13 08:45 am NW 7.0-----30.24- 59.4- 46.6---
2024-04-13 08:30 am NW 7.0-----30.24- 58.3- 45.9---
2024-04-13 08:15 amWNW 5.1-----30.24- 57.0- 45.9---
2024-04-13 08:00 am NW 4.1-----30.24+0.06 56.3- 45.3---
2024-04-13 07:45 amNNW 4.1-----30.24- 55.2- 45.7---
2024-04-13 07:30 am NW 4.1-----30.24- 54.0- 45.3---
2024-04-13 07:15 amNNW 5.1-----30.21- 53.1- 44.8---
2024-04-13 07:00 amNNW 5.1-----30.21+0.03 53.1- 44.8---
2024-04-13 06:45 amNNW 5.1-----30.21- 53.1- 45.1---
2024-04-13 06:30 amNNW 5.1-----30.21- 53.1- 46.2---
2024-04-13 06:15 am NW 5.1-----30.21- 53.4- 46.4---
2024-04-13 06:00 am NW 5.1-----30.21+0.06 54.0- 46.9---
2024-04-13 05:45 am NW 5.1-----30.18- 53.8- 46.8---
2024-04-13 05:30 am NW 5.1-----30.18- 54.3- 47.3---
2024-04-13 05:15 am NW 5.1-----30.18- 54.5- 47.1---
2024-04-13 05:00 am NW 5.1-----30.18+0.03 54.7- 47.3---
2024-04-13 04:45 am NW 5.1-----30.18- 54.9- 47.5---
2024-04-13 04:30 am NW 4.1-----30.18- 55.4- 47.3---
2024-04-13 04:15 amNNW 2.9-----30.18- 55.4- 47.7---
2024-04-13 04:00 am NW 5.1-----30.18+0.03 55.9- 48.6---
2024-04-13 03:45 am NW 2.9-----30.15- 56.5- 48.4---
2024-04-13 03:30 amWNW 4.1-----30.18- 56.8- 48.4---
2024-04-13 03:15 am NW 4.1-----30.15- 57.0- 48.6---
2024-04-13 03:00 am NW 2.9-----30.15+0.03 57.7- 48.6---
2024-04-13 02:45 amWNW 5.1-----30.15- 58.6- 47.8---
2024-04-13 02:30 amWNW 5.1-----30.15- 58.6- 48.2---
2024-04-13 02:15 amWNW 4.1-----30.15- 58.6- 48.7---
2024-04-13 02:00 amWNW 4.1-----30.15+0.03 58.8- 48.7---